Location: Chervonnoye
(48.6000°N, 34.4000°E)
Time: 21:15:19
(UTC+00:00)

RS-44 - Pass Details

Date: 04 December 2021
Orbit: 1175 x 1510 km, 82.5° (Epoch: 19 January)

Event Time Altitude Azimuth Distance (km) Brightness Sun altitude
Rises 03:31:47 0° 351° (N) 4,143 ? -16.6°
Reaches altitude 10° 03:34:28 10° 356° (N) 3,205 ? -16.2°
Maximum altitude 03:41:55 60° 76° (ENE) 1,458 ? -15.0°
Drops below altitude 10° 03:49:52 10° 155° (SSE) 3,418 ? -13.8°
Sets 03:52:49 0° 159° (SSE) 4,435 ? -13.3°
